Location: Unspecified
(47.3532°N, 122.5883°W)
Time: 05:36:59
(UTC-07:00)

Genesis I - Visible Passes

Search period start: 21 June 2018 00:00
Search period end: 01 July 2018 00:00
Orbit: 481 x 547 km, 64.5° (Epoch: 20 June)

Date Brightness Start Highest point End Pass type
(mag) Time Alt. Az. Time Alt. Az. Time Alt. Az.
21 Jun 6.0 02:17:44 10° NNW 02:20:57 22° NE 02:24:09 10° E visible
21 Jun 3.3 03:54:55 10° NW 03:59:00 65° SW 04:03:00 10° SSE visible
22 Jun 5.9 02:01:22 10° NNW 02:04:35 22° NE 02:07:48 10° E visible
22 Jun 3.2 03:38:33 10° NW 03:42:37 65° SW 03:46:38 10° SSE visible
23 Jun 5.8 01:45:00 10° NNW 01:48:14 22° NE 01:51:27 10° E visible
23 Jun 3.2 03:22:11 10° NW 03:26:16 64° SW 03:30:16 10° SSE visible
24 Jun 5.8 01:28:37 10° NNW 01:31:52 22° NE 01:35:05 10° E visible
24 Jun 3.2 03:05:49 10° NW 03:09:53 63° WSW 03:13:52 10° SSE visible
25 Jun 5.7 01:12:14 10° NNW 01:15:30 22° NE 01:18:44 10° E visible
25 Jun 3.3 02:49:27 10° NW 02:53:31 63° SW 02:56:13 20° SSE visible
26 Jun 5.6 00:55:52 10° NNW 00:59:08 22° NE 01:02:23 10° E visible
26 Jun 3.3 02:33:05 10° NW 02:37:09 62° SW 02:39:01 29° SSE visible
27 Jun 5.6 00:39:29 10° NNW 00:42:46 22° NE 00:46:01 10° E visible
27 Jun 3.3 02:16:43 10° NW 02:20:46 62° SW 02:22:05 39° S visible
28 Jun 5.5 00:23:06 10° NNW 00:26:24 22° NE 00:29:39 10° E visible
28 Jun 3.3 02:00:20 10° NW 02:04:23 61° WSW 02:05:20 46° S visible
29 Jun 5.5 00:06:43 10° NNW 00:10:01 23° NE 00:13:18 10° E visible
29 Jun 3.3 01:43:58 10° NW 01:48:01 60° WSW 01:48:43 51° SSW visible
29 Jun 5.4 23:50:21 10° NNW 23:53:38 23° NE 23:56:55 10° E visible
30 Jun 3.3 01:27:35 10° NW 01:31:38 60° WSW 01:32:11 53° SSW visible
30 Jun 5.4 23:33:57 10° NNW 23:37:16 23° NE 23:40:33 10° E visible
